1st Responders/1st Detectors/Storm Spotters Weather Summary for Breckinridge County, KY

Forecast Maps


Reg. NEXRAD Animation


National Fire Danger: Day 1 & 2 Map

Current NWS Watch/Warnings

SPC Convective Day 1 Outlook


Day 2 Outlook

(Click images to enlarge|Page will refresh every 5 minutes)
UK Ag. Weather Center Desktop Severe Weather Service[HERE]
Breckinridge County, KY Hazardous Weather Outlook Webcast
(9 AM to 9 PM Mon-Fri)
[Fast]
[Dial-up]


UKAWC 1st Detectors/1st Responders Precision Weather Forecast For BRECKINRIDGE County, Kentucky
(based on the NWS County Digital Forecast)

ISSUED AT 06:00 UTC ON SUNDAY FEB 18 2018
DAY SUNDAY
CDT 3HR 2A 3A 4A 5A 6A 7A 8A 9A 10A 11A NOON 1P 2P 3P 4P 5P 6P
MAX/MIN -- -- -- -- -- 31° -- -- -- -- -- -- -- -- -- -- 56°
TEMP 34° 34° 32° 31° 31° 31° 31° 34° 38° 41° 45° 49° 52° 54° 56° 54° 54°
SKY COVER 1% 1% 6% 10% 15% 19% 23% 27% 31% 35% 33% 32% 31% 30% 29% 35% 41%
Clouds
DEW PT 34° 32° 31° 31° 29° 29° 31° 31° 32° 32° 34° 34° 34° 34° 36° 36° 36°
RH 99% 96% 96% 96% 95% 95% 96% 88% 81% 70% 65% 55% 52% 46% 47% 49% 52%
POP 12HR -- -- -- -- -- 6% -- -- -- -- -- -- -- -- -- -- --
RAIN/SNOW (liq.equ) -- -- -- -- -- 0.00in -- -- -- -- -- 0.00in -- -- -- -- --
SNOWFALL -- -- -- -- -- 0in -- -- -- -- -- 0in -- -- -- -- --
WIND SPEED(MPH) 2 2 2 2 1 1 2 5 6 7 7 7 7 8 8 8 7
WIND Gust(MPH) 5 5 5 5 2 2 5 7 7 8 10 10 10 13 13 13 10
WIND DIR W W W NW E E E SE SE SE SE SE SE SE SE SE SE
DEW Patchy Frost Frost Frost Frost Frost Frost Frost Frost Frost -- -- -- -- -- -- -- --
HeatIndex 31 31 29 28 31 31 28 31 33 37 40 49 52 54 56 54 54
Rain Showers -- -- -- -- -- -- -- -- -- -- -- -- -- -- -- -- --
Thunder Storm -- -- -- -- -- -- -- -- -- -- -- -- -- -- -- -- --
Fog Patchy Patchy Patchy Patchy Patchy Patchy Patchy -- -- -- -- -- -- -- -- -- --
WIND CHILL -- -- -- -- -- -- -- 30° 34° 36° 41° -- -- -- -- -- --
SPRAY COND
DRY COND
LIVESTOCK COLDSTRESS



DAY MONDAY TUESDAY WEDNESDAY THURSDAY FRIDAY SATURDAY
CDT 6HR 7P 8P 9P 10P 11P MIDN 1A 2A 3A 4A 5A 6A 7A 8A 9A 10A 11A NOON 1P 4P 7P 10P 1A 4A 7A 10A 1P 4P 7P 1A 7A 1P 7P 1A 7A 1P 7P 1A 7A 1P 7P 1A 7A 1P 7P
MAX/MIN -- -- -- -- -- -- -- -- -- -- -- -- 52° -- -- -- -- -- -- 72° -- -- -- -- 61° -- -- 77° -- -- 52° 59° -- -- 40° 52° -- -- 43° 61° -- -- 49° 61° --
TEMP 52° 52° 52° 52° 54° 56° 56° 58° 58° 58° 59° 61° 63° 63° 63° 65° 65° 67° 68° 72° 63° 63° 61° 61° 61° 67° 74° 77° 72° 67° 59° 50° 49° 45° 40° 50° 49° 45° 45° 58° 61° 52° 49° 61° 54°
SKY COVER 47% 56% 73% 82% 85% 91% 94% 95% 96% 97% 97% 98% 98% 98% 98% 97% 96% 94% 93% 81% 79% 59% 77% 81% 85% 81% 80% 68% 79% 92% 96% 95% 93% 91% 85% 82% 76% 72% 83% 85% 90% 90% 95% 89% 87%
Clouds
DEW PT 36° 38° 38° 40° 41° 43° 45° 47° 49° 50° 52° 54° 54° 56° 56° 56° 56° 58° 58° 58° 58° 56° 56° 58° 58° 59° 59° 58° 58° 56° 52° 45° 43° 40° 36° 40° 40° 40° 41° 50° 50° 49° 49° 50° 47°
RH 56% 59% 60% 61% 63% 63% 66% 69% 72% 75% 77% 75% 74% 75% 77% 75% 73% 70% 67% 63% 80% 74% 84% 89% 89% 78% 60% 52% 59% 67% 74% 83% 79% 86% 85% 66% 68% 85% 88% 74% 70% 89% 96% 66% 80%
POP 12HR 0% -- -- -- -- -- -- -- -- -- -- -- 65% -- -- -- -- -- -- -- 51% -- -- -- 12% -- -- -- 8% -- 68% -- 90% -- 51% -- 23% -- 22% -- 62% -- 70% -- 70%
RAIN/SNOW (liq.equ) 0.00in -- -- -- -- -- 0.00in -- -- -- -- -- 0.09in -- -- -- -- -- 0.03in -- 0.00in -- 0.00in -- 0.00in -- 0.00in -- 0.00in -- -- -- -- -- -- -- -- -- -- -- -- -- -- -- --
SNOWFALL 0in -- -- -- -- -- 0in -- -- -- -- -- 0in -- -- -- -- -- 0in -- 0in -- 0in -- 0in -- 0in -- 0in -- -- -- -- -- -- -- -- -- -- -- -- -- -- -- --
WIND SPEED(MPH) 7 7 7 7 8 8 9 9 9 9 10 10 13 14 14 15 15 16 16 15 15 14 14 14 14 15 16 16 14 14 10 7 7 7 7 7 6 6 6 7 7 7 8 9 8
WIND DIR SE SE SE S S S S S S S S S S S S S S S S S S S S S S S S S S SW NW N N N N NE NE E E S SW SW SW SW S
HeatIndex 52 52 52 52 54 56 56 58 58 58 59 61 63 63 63 65 65 67 68 72 63 63 61 61 61 67 74 77 72 67 59 50 49 41 35 50 49 41 41 58 61 52 49 61 54
Rain Showers -- -- -- -- -- -- Likely Likely Likely Likely Likely Likely Chance Chance Chance Chance Chance Chance -- -- -- -- -- -- -- -- -- -- Chance Likely Definite Likely Chance Chance Slight Chance -- Slight Chance Slight Chance Likely Slight Chance Likely Likely Likely Chance Chance
Thunder Storm -- -- -- -- -- -- -- -- -- -- -- -- -- -- -- -- -- -- -- -- -- -- -- -- -- -- -- -- -- Chance -- -- -- -- -- -- -- -- -- -- -- Slight Chance -- -- --
Fog -- -- -- -- -- -- -- -- -- -- -- -- -- -- -- -- -- -- -- -- -- -- -- -- -- -- -- -- -- -- -- -- -- -- -- -- -- -- -- -- -- -- -- -- --
WIND CHILL -- -- -- -- -- -- -- -- -- -- -- -- -- -- -- -- -- -- -- -- -- -- -- -- -- -- -- -- -- -- -- -- -- 41° 35° -- -- 42° 42° -- -- -- -- -- --
SPRAY COND
DRY COND
LIVESTOCK COLDSTRESS

Click on individual weather variable above in left-hand column (ie., TEMP, RH, QPF 12HR) to view state forecast maps






NWS 48 Hr. Forecast Maps,

Regional Hourly Observations For BRECKINRIDGE County, Kentucky
Issued at 100 AM EST SUN FEB 18 2018
NORTH CENTRAL KENTUCKY
  
CITY           SKY/WX    TMP DP  RH WIND       PRES   REMARKS
LOUISVILLE/SDF MOCLDY    37  32  82 W9        30.25R WCI  30          
LOUISVILLE/LOU MOCLDY    38  34  85 W6        30.25R WCI  33          
FORT KNOX      MOCLDY    37  33  86 W5        30.25S WCI  33          


Current NOWCAST not available:
Nowcasts are not issued routinely during fair weather. Only when
precipitation or other significant weather is occuring in this county will these
forecasts be issued. Currently, there is no short term forecast in effect.


Fire Weather Forecast For BRECKINRIDGE County, KY
Provided by the National Weather Service:

Issued at: Sun Feb 18 01:05:01 EST 2018

346 PM EST Sat Feb 17 2018 /246 PM CST Sat Feb 17 2018/

                      Tonight      Sun          Sun Night    Mon          

CLOUD COVER           PCldy        PCldy        MCldy        MCldy        
PRECIP TYPE           NONE         NONE         showers      showers      
CHANCE PRECIP (%)     0            0            60           60           
TEMP (24H TREND)      31 (-4)      58 (+15)     51           73           
RH % (24H TREND)      98 (+8)      44 (-38)     77           57           
20FTWND-VAL/AM(MPH)                Lgt/Var                   S 11 G22     
20FTWND-RDG/PM(MPH)   W  6         SE  6        S  6         S 13 G24     
PRECIP AMOUNT         0.00         0.00         0.08         0.04         
MIXING HGT(FT-AGL/MSL)             2044                      3951         
TRANSPORT WND (MPH)                SE 10                     S 29         
VENT RATE (KT-FT)                  17130                     94368        
DISPERSION                         Poor                      Good         
DSI                   STBL         STBL         STBL         SLGT UNSTBL  
LAL                   1            1            1            1            
HAINES INDEX          3            4            3            2            
ADI EARLY             22 FAIR      20 GEN POOR  12 POOR      30 FAIR      
ADI LATE              11 POOR      21 FAIR      20 GEN POOR  65 GOOD      
MAX LVORI EARLY       6            6            3            3            
MAX LVORI LATE        7            2            3            3            

REMARKS...ADI IS ATMOSPHERIC DISPERSION INDEX BY LAVDAS.        
LVORI IS LOW VISIBILITY OCCURRENCE RISK INDEX.

.TUESDAY...Mostly cloudy. Lows in the lower 60s. Highs in the
upper 70s. South winds around 10 mph. 
.WEDNESDAY...Cloudy with rain showers and chance of
thunderstorms. Cooler. Lows in the mid 50s. Highs in the lower
60s. North winds 5 to 15 mph. 
.THURSDAY...Rain showers likely. Lows in the mid 40s. Highs in
the mid 50s. Northeast winds 5 to 10 mph. 
.FRIDAY...Mostly cloudy. Lows in the mid 40s. Highs in the mid
60s. Southwest winds 5 to 10 mph. 
.SATURDAY...Rain showers likely. Lows in the lower 50s. Highs in
the mid 60s. Southwest winds 5 to 10 mph. 

SPC's Fire Weather Web Tool (Excellent!), SPC's Fire Weather Outlooks, NWS Fire Weather WEB, Fire Danger Class Map,
Keetch-Byram Drought Index, ROMAN Web, Haines Index ,
WFAS's 10-hr Dead Fuel Moist., WFAS's 100-hr Dead Fuel Moist., Probablity of Ignition, Visual blackness Map, Palmer Drought Index, HPC's Rainfall Forecast Maps


Hazardous Weather Outlook For BRECKINRIDGE County, Kentucky
352 PM EST Sat Feb 17 2018 /252 PM CST Sat Feb 17 2018/

 DAY ONE  Tonight.

No hazardous weather is expected at this time.

 DAYS TWO THROUGH SEVEN  Sunday through Friday.

Several rounds of rainfall are likely Sunday night through Friday 
next week. The axis of heaviest rain looks to be across southern 
Indiana and west central Kentucky where in excess of 2 inches are 
possible. With soils saturated and area streams and rivers running 
high, flooding is likely where the heaviest rain falls. 

 SPOTTER INFORMATION STATEMENT  

Spotter activation is not anticipated at this time.

Latest BRECKINRIDGE County, Kentucky Watches, Warnings and Advisories.
Additional Drought Info.: UKAWC Drought Page, Kentucky Drought Watch


7-Day Forecast For BRECKINRIDGE County, KY

OVERNIGHT
Cloudy early in the evening then clearing. Patchy fog. Lows in the lower 30s. Northwest winds up to 10 mph.

SUNDAY
Partly cloudy. Patchy fog. Highs in the mid 50s. Southeast winds 5 to 10 mph.

SUNDAY NIGHT
Warmer. Showers likely. Lows in the lower 50s. South winds 5 to 15 mph. Chance of showers 70 percent.

WASHINGTONS BIRTHDAY
Showers likely. Highs in the lower 70s. South winds 15 to 20 mph. Chance of showers 70 percent.

MONDAY NIGHT
Mostly cloudy. Lows in the lower 60s. South winds around 15 mph.

TUESDAY
Mostly cloudy. Highs in the upper 70s.

TUESDAY NIGHT
Showers likely and chance of thunderstorms. Lows in the mid 50s. Chance of precipitation 70 percent.

WEDNESDAY
Showers. Highs in the lower 60s. Temperatures falling into the 50s in the afternoon. Chance of showers 90 percent.

WEDNESDAY NIGHT
Showers likely. Lows in the lower 40s. Chance of showers 70 percent.

THURSDAY
Mostly cloudy with a 50 percent chance of showers. Highs in the lower 50s.

THURSDAY NIGHT
Mostly cloudy with a 20 percent chance of showers. Lows in the lower 40s.

FRIDAY
Showers likely. Highs in the lower 60s. Chance of showers 60 percent.

FRIDAY NIGHT
Showers likely and slight chance of thunderstorms. Lows around 50. Chance of precipitation 70 percent.

SATURDAY
Showers likely. Highs in the lower 60s. Chance of showers 70 percent.

Ag Weather Center, Department of Biosystems & Agricultural Engineering, University of Kentucky